Vorticity
nan nan nan nan nan nan nan nan nan nan nan nan nan nan nan nan nan nan nan nan nan nan
nan 8 8 8 7 8 8 8 9 10 9 9 8 9 8 8 9 9 9 10 8 nan
nan 8 9 9 9 8 8 9 10 10 9 9 9 9 8 7 9 8 8 9 9 nan
nan 9 9 8 9 9 9 10 9 9 9 10 10 10 14 14 12 11 9 10 10 nan
nan 10 8 8 9 10 8 9 10 10 8 9 13 14 12 11 12 11 9 9 10 nan
nan 9 9 9 10 8 10 10 10 8 15 15 9 4 3 7 7 8 6 10 9 nan
nan 9 9 10 10 11 13 12 12 14 14 9 2 -5 5 14 10 9 11 10 9 nan
nan 13 11 10 13 13 10 12 14 21 18 8 2 5 7 6 11 6 7 8 9 nan
nan 11 13 12 12 11 8 13 15 14 14 8 2 11 14 6 7 8 6 8 12 nan
nan 8 8 12 10 8 10 9 9 12 13 14 14 14 11 5 3 7 9 11 10 nan
nan 11 10 9 8 8 9 9 10 9 10 12 19 21 14 12 9 10 10 11 12 nan
nan 10 10 8 8 8 9 10 10 10 10 12 12 15 20 18 13 12 11 11 13 nan
nan 9 9 8 8 10 10 10 11 11 10 10 6 5 12 15 13 10 11 13 10 nan
nan nan nan nan nan nan nan nan nan nan nan nan nan nan nan nan nan nan nan nan nan nan
CAPE
551 857 680 771 547 437 480 100 0 6 1001 1239 1052 697 757 760 860 895 786 708 547 665
682 785 1203 1460 944 827 498 430 261 339 213 343 528 948 651 897 915 833 868 818 665 665
943 1003 1080 1186 1336 882 864 702 539 463 274 4 4 207 814 604 905 658 541 682 733 745
1652 1673 1395 1433 1353 1105 930 877 563 51 0 0 0 3 634 774 614 915 1018 953 1125 1025
1225 1778 2009 1771 1704 1699 1732 1121 933 391 38 0 0 21 220 161 158 458 602 570 478 726
1674 1845 2112 2139 1871 1739 1673 1503 817 265 24 47 21 2 0 0 0 0 0 16 77 175
1787 1930 2092 2147 2090 1991 1807 1628 1372 818 134 0 1 37 0 0 1 17 13 26 18 31
1831 1906 1942 1928 1757 1359 997 597 578 533 31 2 45 271 56 1 0 0 0 0 0 29
1981 1543 1309 1062 737 338 155 165 46 196 330 42 123 31 5 0 0 0 0 2 0 0
833 879 872 696 533 575 565 417 529 240 116 335 696 184 0 0 0 0 0 1 3 227
826 693 995 911 789 780 757 747 668 515 567 564 487 5 1 0 1 6 17 48 39 13
1097 979 929 787 705 589 419 455 323 179 187 232 14 1 1 0 2 48 2 0 0 0
726 668 708 693 780 572 498 262 152 34 0 0 1 0 0 0 0 0 0 0 1 1
707 755 771 703 729 496 276 47 97 23 0 0 1 1 0 0 0 1 0 44 0 1